Regional Weather Roundup
Issued by NWS

Home | Current Version | Previous Version | Graphics & Text | Print | Product List | Glossary On
Versions: 1 2 3 4 5 6 7 8 9 10 11 12 13 14 15 16 17 18 19 20 21 22 23 24 25 26 27 28 29 30 31 32 33 34 35 36 37 38 39 40 41 42 43 44 45 46 47 48 49 50
000
ASUS45 KTFX 241119
RWRMT
MONTANA HOURLY WEATHER ROUNDUP
NATIONAL WEATHER SERVICE GREAT FALLS MT
519 AM MDT FRI OCT 24 2014

NOTE: "FAIR" INDICATES FEW OR NO CLOUDS BELOW 12000 FEET WITH NO
SIGNIFICANT WEATHER AND/OR OBSTRUCTIONS TO VISIBILITY.

* THESE STATIONS ARE NOT UNDER NWS QUALITY CONTROL. THEY DO NOT
   REPORT WEATHER SUCH AS PRECIPITATION OR FOG.

MTZ001>007-043-241200-
WEST OF THE DIVIDE
CITY           SKY/WX    TMP DP  RH WIND       PRES   REMARKS
KALISPELL      CLOUDY    45  36  71 SW9       30.00S
MISSOULA       CLOUDY    45  43  93 CALM      30.08R
BUTTE          CLOUDY    45  37  74 N7        30.05R
MULLAN PASS    CLOUDY    32  30  92 VRB6      30.03R WCI  26
* ESSEX        N/A       40  39  96 N/A        N/A
* LINCOLN      N/A       41  40  96 S3G9       N/A
* POLSON       N/A       40  35  82 S2G9       N/A
* RONAN APT    CLOUDY    46  37  71 N/A        N/A
* SEELEY LAKE  N/A       42  38  86 N3         N/A
* THOMP F APT  CLOUDY    43  35  73 SE6G12     N/A
* YAAK HILL    N/A       42  40  93 NW1        N/A
$$

MTZ008-052>055-241200-
SOUTHWEST MONTANA
CITY           SKY/WX    TMP DP  RH WIND       PRES   REMARKS
BOZEMAN        CLOUDY    55  36  49 W12       30.00R
DILLON         CLOUDY    46  36  68 S10       30.03S
W YELLOWSTONE  CLOUDY    45  32  60 SW9G23    30.14R
* THREE FORKS  MOCLDY    48  48 100 N/A        N/A
* BOULDER HILL N/A       45  33  63 S9G18      N/A
* MONIDA PASS  N/A       39  35  86 SE19G25    N/A   WCI  29
* RAYNOLDS PAS N/A       45  27  49 SE6        N/A
* WHITEHALL    N/A       50  37  61 W7G14      N/A
* WISE RIVER   N/A       43  38  83 SW4        N/A
$$

MTZ009>010-012-014-046-048-049-054-241200-
EAST SLOPES AND CENTRAL MONTANA
CITY           SKY/WX    TMP DP  RH WIND       PRES   REMARKS
CUT BANK       MOCLDY    45  32  60 W24       29.90R
GREAT FALLS    PTCLDY    46  36  68 SW13      29.95R
HELENA         CLOUDY    48  37  66 W8        29.99R
MALMSTROM AFB  PTCLDY    48  36  63 SW15      29.96R
* CONRAD       MOCLDY    46  30  54 SW9        N/A
* DEARBORN     N/A       52  35  52 S12G17     N/A
* EAST GLACIER N/A       40  31  70 W16G24     N/A   WCI  32
* MONARCH      N/A       46  28  50 SW10G15    N/A
* PENDROY      N/A       46  26  46 W31G42     N/A
* ROGERS PASS  N/A       38  35  89 SE12G21    N/A   WCI  30
* SAINT MARY   N/A       40  34  79 SW8G21     N/A   WCI  35
* SWEET GRASS  N/A       44  33  65 W30G37     N/A
* WHITE SULPH  N/A       48  40  74 W4G13      N/A
$$

MTZ011-013-016-021-035-040-045-047-050-051-241200-
NORTH CENTRAL MONTANA
CITY           SKY/WX    TMP DP  RH WIND       PRES   REMARKS
HAVRE          MOCLDY    46  37  71 SW14      29.88R
LEWISTOWN      CLOUDY    48  37  66 NW7       29.95R
* CHINOOK      PTCLDY    54  36  51 SW17G22   29.86R
* FORT BENTON  PTCLDY    46  36  68 SW6       29.94R
* CHESTER      N/A       44  34  68 SW3        N/A
* DENTON       N/A       45  37  74 W4         N/A
* GEYSER       N/A       48  32  54 W20G28     N/A
* JUDITH GAP   N/A       46  41  83 NE5        N/A
* LOMA         N/A       50  36  59 SW10G17    N/A
$$

MTZ017>020-022>027-061-062-241200-
NORTHEAST MONTANA
CITY           SKY/WX    TMP DP  RH WIND       PRES   REMARKS
GLASGOW        PTCLDY    48  39  71 W10       29.83R
GLENDIVE       MOCLDY    43  36  76 NE5       29.87R
JORDAN         CLOUDY    43  34  71 W3        29.88R
SIDNEY         MOCLDY    41  36  82 CALM      29.85R
WOLF POINT     PTCLDY    45  37  74 SW5       29.83R
* BEAVER HILL  N/A       50  32  50 S14        N/A
* CIRCLE       N/A       47  37  68 N/A        N/A
* LINDSAY DVD  N/A       52  35  52 W11G17     N/A
* NAVAJO       N/A       51  39  64 W16        N/A
$$

MTZ028>042-056>058-241200-
SOUTHCENTRAL AND SOUTHEAST MONTANA
CITY           SKY/WX    TMP DP  RH WIND       PRES   REMARKS
BAKER          MOCLDY    55  28  35 SW14      29.87S
BILLINGS       PTCLDY    48  34  59 NW8       29.94R
LIVINGSTON     CLOUDY    57  34  42 SW24G35   29.95S
MILES CITY     MOCLDY    43  34  71 SW6       29.89R
* LAUREL APT   PTCLDY    48  27  44 N/A        N/A
* ROUNDUP APT  PTCLDY    46  32  58 SW5        N/A
* ALZADA       N/A       45  31  58 NW4        N/A
* HYSHAM       N/A       51  27  39 N/A        N/A
* LAME DEER    N/A       58  27  31 W6         N/A
* REED POINT   N/A       36  32  85 N/A        N/A
* ROSCOE HILL  N/A       57  24  28 W7G18      N/A
$$

REGIONAL REPORTS...DAKOTAS
CITY           SKY/WX    TMP DP  RH WIND       PRES   REMARKS
WILLISTON      PTCLDY    43  36  76 CALM      29.81R
DICKINSON      MOCLDY    39  30  70 SW5       29.83R WCI  35
BEACH          N/A       46  32  58 SW10      29.85S
CROSBY         FAIR      50  39  66 SW14      29.77R
TIOGA          CLEAR     39  37  93 W3        29.83R
BISMARCK       CLOUDY    41  32  70 CALM      29.83R
GRAND FORKS    PTCLDY    39  36  89 S7        29.74S WCI  34
FARGO          CLOUDY    46  41  83 S6        29.79S
BUFFALO SD     CLOUDY    46  28  50 W5        29.83R
RAPID CITY     MOCLDY    45  32  60 CALM      29.91R
$$

REGIONAL REPORTS...WYOMING/IDAHO/WASHINGTON
CITY           SKY/WX    TMP DP  RH WIND       PRES   REMARKS
GILLETTE       CLOUDY    54  25  33 SW6       29.96R
SHERIDAN       CLOUDY    45  28  51 CALM      29.94R
CODY           CLOUDY    57  30  36 N3        30.00R
YELLOWSTONE LA MOCLDY    43  30  60 W7        30.20R
SALMON         CLOUDY    46  39  77 CALM      30.05R
MULLAN PASS    CLOUDY    32  30  92 VRB6      30.03S WCI  26
SAND POINT     CLOUDY    43  43 100 S3        30.03R
SPOKANE        MOCLDY    43  39  86 S9        30.03S
$$

REGIONAL REPORTS...ALBERTA
CITY           SKY/WX    TMP DP  RH WIND       PRES   REMARKS
CALGARY        N/A       36  21  54 VRB2      29.77R
LETHBRIDGE     CLEAR     46  27  48 SW14G24   29.83R
MEDICINE HAT   CLEAR     50  32  50 W23G29    29.78R
EDMONTON       MOCLDY    43  30  60 W13       29.73R
WATERTON GATE  N/A       45  27  49 SW14G23    N/A
CARDSTON       N/A       41  30  65 SW8        N/A
MILK RIVER     N/A       46  30  54 W31G44     N/A
$$

REGIONAL REPORTS...SASKATCHEWAN
CITY           SKY/WX    TMP DP  RH WIND       PRES   REMARKS
SWIFT CURRENT  CLEAR     48  36  63 SW25G31   29.69R
MOOSE JAW      FAIR      52  39  61 W13       29.67R
REGINA         MOCLDY    48  41  77 S8        29.66F
VAL MARIE      N/A       50  39  66 W18        N/A
ASSINIBOIA     N/A       48  39  71 SW13       N/A

$$




USA.gov is the U.S. government's official web portal to all federal, state and local government web resources and services.